Back to catalog

FALCON 9 R/B

AliveHEO
NORAD 42968·ROCKET BODY·🇺🇸 United States

Launched Oct 11, 2017 from Cape Canaveral Space Force Station

Loading…

Next Passes (next 24 hours)

TLE

FreshSource: Space-Track

Epoch: Sep 14, 2026, 11:32 UTC

1 42968U 17063B   26257.48102704  .00222182  34871-6  18126-2 0  9990
2 42968  27.8762  47.7289 5127108 132.5613 284.0478  5.56936458106332

Track FALCON 9 R/B in real time with AllMySat

Download on the App Store